CZ-4C DEB, 44616

Orbit data source: Space-Track

CZ-4C DEB, 44616 is space debris in SSO originally from a launch on Sat, 31 Mar 2018 UTC launched from the Taiyaun Space Center, China (TSC). Debris objects in space refer to the collection of defunct objects orbiting the Earth. Examples of debris include non-operational satellites, rocket bodies, and fragments generated from explosions, collisions, or faulty payload assembly.

Loading next visibility...
Identifier
44616, 2018-031K
Orbit
SSO
Country
Flag of CNCN / PRC
Related business
Manufacturer
Unknown
Mission
Spacecraft
Bus & Motor
Unknown
Mass
Unknown
Launch date (UTC)
2018-03-31 (8 years ago)
Launch vehicle
Unknown
Launch site
Taiyaun Space Center, China (TSC)
Object type
Payload
Rocket body
Debris
Shape & HBR
Unknown shape, 0.1 m
Radar Cross Section
Small (<0.1 m²)

Expand to show TLE details & history
Last TLE update: 3 days ago

TLE from 3 days ago
0 CZ-4C DEB
1 44616U 18031K   26169.96782615  .00003215  00000-0  28824-3 0  9990
2 44616  97.7957 254.8385 0003786 281.2624  78.8172 14.96485558426483
Epoch: 2026-06-18T23:13Z
TLE epoch observation values (Epoch: 2026-06-18T23:13:40.179Z)
Latitude
0.00002°
Longitude
-0.78247°
Altitude
580.303 km
Speed
7.571 km/s
True Right ascension
16h 59m 21s
True Declination
0° 00' 00"
Sunlit
Object was in full shadow at epoch
Visualization orbit readout
Latitude
Unknown
Longitude
Unknown
Altitude
Unknown
Speed
Unknown
Apparent Right ascension
Unknown
Apparent Declination
Unknown
Sunlit
N/A
Visualization observer readout
Local Sidereal Time
21:39:17
Azimuth
Unknown
Elevation
Unknown
Doppler factor
Unknown
Orbital elements
Apogee altitude
577.412 km
Perigee altitude
572.147 km
Semi-major axis
6,952.917 km
Eccentricity
0.00038
Inclination
97.7957°
RAAN
254.8385°
Arg. of periapsis
281.2624°
True anomaly
78.85976°
Mean anomaly
78.8172°
Eccentric anomaly
78.83848°
Mean motion
3.74363 °/min
Orbital period
96.16 mins
BSTAR
0.00028824
Loading maneuver chart data...
Computing Atmospheric mass density...
Loading historical data...
Loading historical data...
Loading historical data...
Loading historical data...
Loading historical data...
Loading historical data...
Loading historical data...

Documentation

Showing up to 5 results
|